sat.trackr.live / text

‹ back to catalog

STARLINK-35284

NORAD 65741 · 2025-216H

PAYLOAD ACTIVE UNKNOWN

§ Identity

Operator
Country
US
Launch date
2025-09-25
Launch site
AFETR
Launch vehicle
Mass (kg)
RCS (m²)

Purposes: comms

External: N2YO · Heavens-Above · Gunter

§ Orbital elements

Epoch: 2026-05-24T12:51:21.311712Z

Period
94.10 min
Inclination
53.1616°
Eccentricity
0.0001464
Mean motion
15.30213739 rev/d
Perigee alt
474.2 km
Apogee alt
476.2 km
Semi-major
6,853.3 km
B*
6.3286e-4
RAAN
340.7656°
Arg perigee
83.5175°
Mean anomaly
276.5993°
Rev number
3,815

§ Raw data

STARLINK-352841 65741U 25216H   26144.53566333  .00018439  00000+0  63286-3 0  99922 65741  53.1616 340.7656 0001464  83.5175 276.5993 15.30213739 38154

JSON: /api/v1/satellites/65741 · /tle

For live sub-satellite position, see the globe view (requires WebGL).

§ Visibility from observer

Set your observer location to see the next 7 days of passes ≥ 10°. The values pass through the URL so the page stays shareable.

No JS? Fill the form by hand. The geolocation button needs JavaScript.